Back to catalog

STARLINK-30254

AliveCommunicationsVLEO
NORAD 57533·PAYLOAD·🇺🇸 United States

Launched Aug 8, 2023 from Vandenberg Space Force Base

Loading…

Next Passes (next 24 hours)

TLE

FreshSource: CelesTrak SupGP

Epoch: Sep 14, 2026, 14:58 UTC

1 57533C 23115N   26257.62409722  .00022202  00000+0  80402-3 0  2570
2 57533  43.0004 116.1600 0001415 260.1285 151.4017 15.27573148    19

Track STARLINK-30254 in real time with AllMySat

Download on the App Store